{"data":{"norad_id":58742,"intl_designator":"2024-005Q","name":"STARLINK-31151","alt_names":[],"object_type":"PAYLOAD","status":"ACTIVE","operator":null,"country":"US","launch_date":"2024-01-07","launch_site_code":"AFETR","launch_vehicle":null,"mission":null,"orbit_class":"UNKNOWN","rcs_meters":null,"size_class":null,"mass_kg":null,"dimensions":null,"purposes":["comms"],"wikipedia_slug":null,"has_3d_model":false,"image_url":null,"decayed_at":null,"tle_current":{"epoch":"2026-05-25T01:09:41.105952Z","epoch_age_seconds":81257,"freshness":"FRESH","line1":"1 58742U 24005Q   26145.04839243  .00001067  00000+0  48302-4 0  9992","line2":"2 58742  43.0031 148.3669 0000958 264.7873  95.2869 15.27578799132213","mean_motion":15.27578799,"eccentricity":9.58e-5,"inclination_deg":43.0031,"raan_deg":148.3669,"arg_perigee_deg":264.7873,"mean_anomaly_deg":95.2869,"bstar":4.8302e-5,"rev_number":13221,"period_min":94.266822827252,"perigee_km":482.39539029555,"apogee_km":483.70999424059,"semimajor_km":6861.1896922681,"source":"CELESTRAK","updated_at":"2026-05-25T13:38:18.738355Z"}}}